START_TIME,STEP,MOV.,M35,t_acc.,PL05,t_acc.,PL06,t_acc.,PL07,t_acc.
1979-07-02 21:00:24.760 ,0,0,0.,4.8,3.,4.8,0.,4.8,0.,4.8
1979-07-02 21:00:29.560 ,0,0,0.,4.8,0.,4.8,2.,4.8,2.,4.8
1979-07-02 21:00:34.360 ,0,0,0.,4.8,1.,4.8,1.,4.8,1.,4.8
1979-07-02 21:00:39.160 ,0,0,0.,4.8,6.,4.8,1.,4.8,1.,4.8
1979-07-02 21:00:43.960 ,0,0,0.,4.8,5.,4.8,1.,4.8,1.,4.8
1979-07-02 21:00:48.760 ,0,0,0.,4.8,3.,4.8,2.,4.8,0.,4.8
1979-07-02 21:00:53.560 ,0,0,0.,4.8,1.,4.8,1.,4.8,0.,4.8
1979-07-02 21:00:58.360 ,0,0,0.,4.8,4.,4.8,2.,4.8,0.,4.8
1979-07-02 21:01:03.160 ,0,0,0.,4.8,4.,4.8,2.,4.8,0.,4.8
1979-07-02 21:01:07.960 ,0,0,0.,4.8,2.,4.8,0.,4.8,2.,4.8
1979-07-02 21:01:12.760 ,0,0,0.,4.8,2.,4.8,2.,4.8,0.,4.8
1979-07-02 21:01:17.560 ,0,0,0.,4.8,3.,4.8,0.,4.8,2.,4.8
1979-07-02 21:01:22.360 ,0,0,0.,4.8,0.,4.8,2.,4.8,0.,4.8
1979-07-02 21:01:27.160 ,0,0,0.,4.8,3.,4.8,2.,4.8,0.,4.8
1979-07-02 21:01:31.960 ,0,0,0.,4.8,1.,4.8,0.,4.8,0.,4.8
1979-07-02 21:01:36.760 ,1,0,0.,4.8,2.,4.8,0.,4.8,1.,4.8
1979-07-02 21:01:41.560 ,1,0,0.,4.8,0.,4.8,0.,4.8,0.,4.8
1979-07-02 21:01:46.360 ,1,0,0.,4.8,7.,4.8,0.,4.8,1.,4.8
1979-07-02 21:01:51.160 ,1,0,0.,4.8,4.,4.8,2.,4.8,3.,4.8
1979-07-02 21:01:55.960 ,1,0,0.,4.8,7.,4.8,1.,4.8,0.,4.8
1979-07-02 21:02:00.760 ,1,0,0.,4.8,8.,4.8,3.,4.8,0.,4.8
1979-07-02 21:02:05.560 ,1,0,0.,4.8,4.,4.8,2.,4.8,1.,4.8
1979-07-02 21:02:10.360 ,1,0,0.,4.8,4.,4.8,0.,4.8,0.,4.8
1979-07-02 21:02:15.160 ,1,0,0.,4.8,6.,4.8,2.,4.8,1.,4.8
1979-07-02 21:02:19.960 ,1,0,0.,4.8,12.,4.8,0.,4.8,1.,4.8
1979-07-02 21:02:24.760 ,2,0,0.,4.8,5.,4.8,0.,4.8,1.,4.8
1979-07-02 21:02:29.560 ,2,0,0.,4.8,2.,4.8,4.,4.8,0.,4.8
1979-07-02 21:02:34.360 ,2,0,0.,4.8,4.,4.8,0.,4.8,0.,4.8
1979-07-02 21:02:39.160 ,2,0,0.,4.8,2.,4.8,2.,4.8,0.,4.8
1979-07-02 21:02:43.960 ,2,0,0.,4.8,4.,4.8,2.,4.8,1.,4.8
1979-07-02 21:02:48.760 ,2,0,0.,4.8,5.,4.8,0.,4.8,0.,4.8
1979-07-02 21:02:53.560 ,2,0,0.,4.8,2.,4.8,0.,4.8,2.,4.8
1979-07-02 21:02:58.360 ,2,0,0.,4.8,0.,4.8,0.,4.8,0.,4.8
1979-07-02 21:03:03.160 ,2,0,0.,4.8,3.,4.8,1.,4.8,3.,4.8
1979-07-02 21:03:07.960 ,2,0,0.,4.8,6.,4.8,3.,4.8,2.,4.8
1979-07-02 21:03:12.760 ,3,0,0.,4.8,1.,4.8,3.,4.8,1.,4.8
1979-07-02 21:03:17.560 ,3,0,0.,4.8,4.,4.8,0.,4.8,1.,4.8
1979-07-02 21:03:22.360 ,3,0,0.,4.8,3.,4.8,0.,4.8,1.,4.8
1979-07-02 21:03:27.160 ,3,0,0.,4.8,3.,4.8,1.,4.8,0.,4.8
1979-07-02 21:03:31.960 ,3,0,0.,4.8,2.,4.8,2.,4.8,2.,4.8
1979-07-02 21:03:36.760 ,3,0,0.,4.8,3.,4.8,0.,4.8,0.,4.8
1979-07-02 21:03:41.560 ,3,0,0.,4.8,3.,4.8,3.,4.8,0.,4.8
1979-07-02 21:03:46.360 ,3,0,0.,4.8,6.,4.8,2.,4.8,0.,4.8
1979-07-02 21:03:51.160 ,3,0,0.,4.8,1.,4.8,1.,4.8,1.,4.8
1979-07-02 21:03:55.960 ,3,0,0.,4.8,3.,4.8,0.,4.8,0.,4.8
1979-07-02 21:04:00.760 ,4,0,0.,4.8,6.,4.8,1.,4.8,1.,4.8
1979-07-02 21:04:05.560 ,4,0,0.,4.8,2.,4.8,2.,4.8,0.,4.8
1979-07-02 21:04:10.360 ,4,0,0.,4.8,3.,4.8,1.,4.8,0.,4.8
1979-07-02 21:04:15.160 ,4,0,0.,4.8,3.,4.8,0.,4.8,0.,4.8
1979-07-02 21:04:19.960 ,4,0,0.,4.8,2.,4.8,1.,4.8,0.,4.8
1979-07-02 21:04:24.760 ,4,0,0.,4.8,1.,4.8,1.,4.8,0.,4.8
1979-07-02 21:04:29.560 ,4,0,0.,4.8,2.,4.8,1.,4.8,0.,4.8
1979-07-02 21:04:34.360 ,4,0,0.,4.8,5.,4.8,1.,4.8,1.,4.8
1979-07-02 21:04:39.160 ,4,0,0.,4.8,1.,4.8,1.,4.8,0.,4.8
1979-07-02 21:04:43.960 ,4,0,0.,4.8,1.,4.8,3.,4.8,0.,4.8
1979-07-02 21:04:48.760 ,5,0,0.,4.8,2.,4.8,0.,4.8,1.,4.8
1979-07-02 21:04:53.560 ,5,0,0.,4.8,6.,4.8,0.,4.8,1.,4.8
1979-07-02 21:04:58.360 ,5,0,0.,4.8,2.,4.8,0.,4.8,0.,4.8
1979-07-02 21:05:03.160 ,5,0,0.,4.8,3.,4.8,3.,4.8,1.,4.8
1979-07-02 21:05:07.960 ,5,0,0.,4.8,8.,4.8,2.,4.8,1.,4.8
1979-07-02 21:05:12.760 ,5,0,0.,4.8,0.,4.8,2.,4.8,0.,4.8
1979-07-02 21:05:17.560 ,5,0,0.,4.8,1.,4.8,1.,4.8,0.,4.8
1979-07-02 21:05:22.360 ,5,0,0.,4.8,4.,4.8,0.,4.8,2.,4.8
1979-07-02 21:05:27.160 ,5,0,0.,4.8,3.,4.8,1.,4.8,1.,4.8
1979-07-02 21:05:31.960 ,5,0,0.,4.8,1.,4.8,1.,4.8,1.,4.8
1979-07-02 21:05:36.760 ,6,0,0.,4.8,4.,4.8,0.,4.8,0.,4.8
1979-07-02 21:05:41.560 ,6,0,0.,4.8,2.,4.8,1.,4.8,2.,4.8
1979-07-02 21:05:46.360 ,6,0,0.,4.8,2.,4.8,1.,4.8,3.,4.8
1979-07-02 21:05:51.160 ,6,0,0.,4.8,4.,4.8,1.,4.8,0.,4.8
1979-07-02 21:05:55.960 ,6,0,0.,4.8,3.,4.8,1.,4.8,2.,4.8
1979-07-02 21:06:00.760 ,6,0,0.,4.8,3.,4.8,1.,4.8,2.,4.8
1979-07-02 21:06:05.560 ,6,0,0.,4.8,2.,4.8,0.,4.8,1.,4.8
1979-07-02 21:06:10.360 ,6,0,0.,4.8,3.,4.8,3.,4.8,1.,4.8
1979-07-02 21:06:15.160 ,6,0,0.,4.8,0.,4.8,1.,4.8,1.,4.8
1979-07-02 21:06:19.960 ,6,0,0.,4.8,2.,4.8,0.,4.8,0.,4.8
1979-07-02 21:06:24.760 ,7,0,0.,4.8,1.,4.8,1.,4.8,1.,4.8
1979-07-02 21:06:29.560 ,7,0,0.,4.8,3.,4.8,0.,4.8,0.,4.8
1979-07-02 21:06:34.360 ,7,0,0.,4.8,0.,4.8,0.,4.8,0.,4.8
1979-07-02 21:06:39.160 ,7,0,0.,4.8,0.,4.8,0.,4.8,0.,4.8
1979-07-02 21:06:43.960 ,7,0,0.,4.8,0.,4.8,0.,4.8,0.,4.8
1979-07-02 21:06:48.760 ,7,0,0.,4.8,0.,4.8,0.,4.8,0.,4.8
1979-07-02 21:06:53.560 ,7,0,0.,4.8,0.,4.8,0.,4.8,0.,4.8
1979-07-02 21:06:58.360 ,7,0,0.,4.8,1.,4.8,0.,4.8,0.,4.8
1979-07-02 21:07:03.160 ,7,0,0.,4.8,0.,4.8,0.,4.8,0.,4.8
1979-07-02 21:07:07.960 ,7,0,0.,4.8,0.,4.8,0.,4.8,0.,4.8
1979-07-02 21:07:12.760 ,3,1,0.,4.8,0.,4.8,0.,4.8,0.,4.8
1979-07-02 21:07:17.560 ,3,1,0.,4.8,2.,4.8,0.,4.8,1.,4.8
1979-07-02 21:07:22.360 ,3,1,0.,4.8,1.,4.8,3.,4.8,0.,4.8
1979-07-02 21:07:27.160 ,3,1,0.,4.8,0.,4.8,0.,4.8,0.,4.8
1979-07-02 21:07:31.960 ,3,1,0.,4.8,3.,4.8,0.,4.8,1.,4.8
1979-07-02 21:07:36.760 ,0,1,0.,4.8,3.,4.8,2.,4.8,2.,4.8
1979-07-02 21:07:41.560 ,0,1,0.,4.8,3.,4.8,1.,4.8,0.,4.8
1979-07-02 21:07:46.360 ,0,1,0.,4.8,1.,4.8,2.,4.8,1.,4.8
1979-07-02 21:07:51.160 ,0,1,0.,4.8,1.,4.8,0.,4.8,1.,4.8
1979-07-02 21:07:55.960 ,0,1,0.,4.8,5.,4.8,0.,4.8,1.,4.8
1979-07-02 21:08:00.760 ,4,1,0.,4.8,4.,4.8,2.,4.8,0.,4.8
1979-07-02 21:08:05.560 ,4,1,0.,4.8,6.,4.8,1.,4.8,2.,4.8
1979-07-02 21:08:10.360 ,4,1,0.,4.8,3.,4.8,1.,4.8,2.,4.8
1979-07-02 21:08:15.160 ,4,1,0.,4.8,4.,4.8,3.,4.8,1.,4.8
1979-07-02 21:08:19.960 ,4,1,0.,4.8,0.,4.8,1.,4.8,0.,4.8
1979-07-02 21:08:24.760 ,7,1,0.,4.8,2.,4.8,2.,4.8,1.,4.8
1979-07-02 21:08:29.560 ,7,1,0.,4.8,1.,4.8,1.,4.8,0.,4.8
1979-07-02 21:08:34.360 ,7,1,0.,4.8,2.,4.8,1.,4.8,1.,4.8
1979-07-02 21:08:39.160 ,7,1,0.,4.8,0.,4.8,0.,4.8,0.,4.8
1979-07-02 21:08:43.960 ,7,1,0.,4.8,0.,4.8,0.,4.8,0.,4.8
1979-07-02 21:08:48.760 ,3,1,0.,4.8,1.,4.8,1.,4.8,0.,4.8
1979-07-02 21:08:53.560 ,3,1,0.,4.8,2.,4.8,3.,4.8,0.,4.8
1979-07-02 21:08:58.360 ,3,1,0.,4.8,3.,4.8,2.,4.8,2.,4.8
1979-07-02 21:09:03.160 ,3,1,0.,4.8,3.,4.8,1.,4.8,1.,4.8
1979-07-02 21:09:07.960 ,3,1,0.,4.8,1.,4.8,0.,4.8,2.,4.8
1979-07-02 21:09:12.760 ,0,1,0.,4.8,1.,4.8,1.,4.8,1.,4.8
1979-07-02 21:09:17.560 ,0,1,0.,4.8,3.,4.8,2.,4.8,1.,4.8
1979-07-02 21:09:22.360 ,0,1,0.,4.8,4.,4.8,4.,4.8,0.,4.8
1979-07-02 21:09:27.160 ,0,1,0.,4.8,5.,4.8,0.,4.8,1.,4.8
1979-07-02 21:09:31.960 ,0,1,0.,4.8,4.,4.8,1.,4.8,0.,4.8
1979-07-02 21:09:36.760 ,4,1,0.,4.8,6.,4.8,3.,4.8,0.,4.8
1979-07-02 21:09:41.560 ,4,1,0.,4.8,3.,4.8,3.,4.8,1.,4.8
1979-07-02 21:09:46.360 ,4,1,0.,4.8,0.,4.8,2.,4.8,0.,4.8
1979-07-02 21:09:51.160 ,4,1,0.,4.8,1.,4.8,2.,4.8,0.,4.8
1979-07-02 21:09:55.960 ,4,1,0.,4.8,3.,4.8,0.,4.8,1.,4.8
1979-07-02 21:10:00.760 ,7,1,0.,4.8,1.,4.8,0.,4.8,2.,4.8
1979-07-02 21:10:05.560 ,7,1,0.,4.8,0.,4.8,0.,4.8,2.,4.8
1979-07-02 21:10:10.360 ,7,1,0.,4.8,9.,4.8,0.,4.8,1.,4.8
1979-07-02 21:10:15.160 ,7,1,0.,4.8,0.,4.8,0.,4.8,0.,4.8
1979-07-02 21:10:19.960 ,7,1,0.,4.8,1.,4.8,0.,4.8,0.,4.8
1979-07-02 21:10:24.760 ,3,1,0.,4.8,0.,4.8,0.,4.8,0.,4.8
1979-07-02 21:10:29.560 ,3,1,0.,4.8,2.,4.8,1.,4.8,0.,4.8
1979-07-02 21:10:34.360 ,3,1,0.,4.8,1.,4.8,0.,4.8,0.,4.8
1979-07-02 21:10:39.160 ,3,1,0.,4.8,0.,4.8,0.,4.8,0.,4.8
1979-07-02 21:10:43.960 ,3,1,0.,4.8,1.,4.8,0.,4.8,0.,4.8
1979-07-02 21:10:48.760 ,0,1,0.,4.8,3.,4.8,0.,4.8,0.,4.8
1979-07-02 21:10:53.560 ,0,1,0.,4.8,5.,4.8,0.,4.8,0.,4.8
1979-07-02 21:10:58.360 ,0,1,0.,4.8,2.,4.8,0.,4.8,0.,4.8
1979-07-02 21:11:03.160 ,0,1,,0,,0,,0,,0
1979-07-02 21:11:07.960 ,0,1,0.,4.8,1.,4.8,3.,4.8,0.,4.8
1979-07-02 21:11:12.760 ,4,1,0.,4.8,2.,4.8,2.,4.8,0.,4.8
1979-07-02 21:11:17.560 ,4,1,1.,4.8,4.,4.8,1.,4.8,1.,4.8
1979-07-02 21:11:22.360 ,4,1,0.,4.8,0.,4.8,1.,4.8,1.,4.8
1979-07-02 21:11:27.160 ,4,1,0.,4.8,4.,4.8,1.,4.8,0.,4.8
1979-07-02 21:11:31.960 ,4,1,0.,4.8,2.,4.8,2.,4.8,0.,4.8
1979-07-02 21:11:36.760 ,7,1,0.,4.8,1.,4.8,2.,4.8,0.,4.8
1979-07-02 21:11:41.560 ,7,1,0.,4.8,3.,4.8,2.,4.8,0.,4.8
1979-07-02 21:11:46.360 ,7,1,0.,4.8,4.,4.8,1.,4.8,0.,4.8
1979-07-02 21:11:51.160 ,7,1,0.,4.8,1.,4.8,0.,4.8,0.,4.8
1979-07-02 21:11:55.960 ,7,1,0.,4.8,0.,4.8,1.,4.8,1.,4.8
1979-07-02 21:12:00.760 ,3,1,0.,4.8,0.,4.8,0.,4.8,0.,4.8
1979-07-02 21:12:05.560 ,3,1,0.,4.8,1.,4.8,2.,4.8,0.,4.8
1979-07-02 21:12:10.360 ,3,1,0.,4.8,3.,4.8,0.,4.8,0.,4.8
1979-07-02 21:12:15.160 ,3,1,0.,4.8,2.,4.8,0.,4.8,1.,4.8
1979-07-02 21:12:19.960 ,3,1,0.,4.8,2.,4.8,2.,4.8,0.,4.8
1979-07-02 21:12:24.760 ,0,1,0.,4.8,0.,4.8,0.,4.8,0.,4.8
1979-07-02 21:12:29.560 ,0,1,0.,4.8,4.,4.8,0.,4.8,0.,4.8
1979-07-02 21:12:34.360 ,0,1,0.,4.8,5.,4.8,0.,4.8,1.,4.8
1979-07-02 21:12:39.160 ,0,1,0.,4.8,2.,4.8,1.,4.8,0.,4.8
1979-07-02 21:12:43.960 ,0,1,0.,4.8,3.,4.8,2.,4.8,1.,4.8
1979-07-02 21:12:48.760 ,4,1,0.,4.8,0.,4.8,0.,4.8,1.,4.8
1979-07-02 21:12:53.560 ,4,1,0.,4.8,6.,4.8,0.,4.8,3.,4.8
1979-07-02 21:12:58.360 ,4,1,0.,4.8,3.,4.8,0.,4.8,0.,4.8
1979-07-02 21:13:03.160 ,4,1,0.,4.8,4.,4.8,0.,4.8,0.,4.8
1979-07-02 21:13:07.960 ,4,1,0.,4.8,3.,4.8,1.,4.8,0.,4.8
1979-07-02 21:13:12.760 ,7,1,0.,4.8,1.,4.8,0.,4.8,1.,4.8
1979-07-02 21:13:17.560 ,7,1,0.,4.8,1.,4.8,0.,4.8,1.,4.8
1979-07-02 21:13:22.360 ,7,1,0.,4.8,3.,4.8,1.,4.8,0.,4.8
1979-07-02 21:13:27.160 ,7,1,0.,4.8,1.,4.8,0.,4.8,0.,4.8
1979-07-02 21:13:31.960 ,7,1,0.,4.8,0.,4.8,1.,4.8,0.,4.8
1979-07-02 21:13:36.760 ,3,1,0.,4.8,0.,4.8,0.,4.8,1.,4.8
1979-07-02 21:13:41.560 ,3,1,0.,4.8,3.,4.8,1.,4.8,1.,4.8
1979-07-02 21:13:46.360 ,3,1,0.,4.8,4.,4.8,0.,4.8,0.,4.8
1979-07-02 21:13:51.160 ,3,1,0.,4.8,2.,4.8,2.,4.8,0.,4.8
1979-07-02 21:13:55.960 ,3,1,0.,4.8,0.,4.8,1.,4.8,0.,4.8
1979-07-02 21:14:00.760 ,0,1,0.,4.8,3.,4.8,0.,4.8,0.,4.8
1979-07-02 21:14:05.560 ,0,1,0.,4.8,3.,4.8,0.,4.8,1.,4.8
1979-07-02 21:14:10.360 ,0,1,0.,4.8,3.,4.8,2.,4.8,1.,4.8
1979-07-02 21:14:15.160 ,0,1,0.,4.8,4.,4.8,1.,4.8,0.,4.8
1979-07-02 21:14:19.960 ,0,1,0.,4.8,2.,4.8,0.,4.8,0.,4.8
1979-07-02 21:14:24.760 ,4,1,0.,4.8,2.,4.8,0.,4.8,3.,4.8
1979-07-02 21:14:29.560 ,4,1,0.,4.8,6.,4.8,4.,4.8,1.,4.8
1979-07-02 21:14:34.360 ,4,1,0.,4.8,1.,4.8,0.,4.8,0.,4.8
1979-07-02 21:14:39.160 ,4,1,0.,4.8,7.,4.8,0.,4.8,0.,4.8
1979-07-02 21:14:43.960 ,4,1,0.,4.8,2.,4.8,2.,4.8,0.,4.8
1979-07-02 21:14:48.760 ,7,1,0.,4.8,2.,4.8,1.,4.8,0.,4.8
1979-07-02 21:14:53.560 ,7,1,0.,4.8,2.,4.8,1.,4.8,0.,4.8
1979-07-02 21:14:58.360 ,7,1,0.,4.8,3.,4.8,1.,4.8,0.,4.8
1979-07-02 21:15:03.160 ,7,1,0.,4.8,3.,4.8,0.,4.8,0.,4.8
1979-07-02 21:15:07.960 ,7,1,0.,4.8,0.,4.8,0.,4.8,0.,4.8
1979-07-02 21:15:12.760 ,3,1,0.,4.8,0.,4.8,1.,4.8,0.,4.8
1979-07-02 21:15:17.560 ,3,1,0.,4.8,3.,4.8,1.,4.8,0.,4.8
1979-07-02 21:15:22.360 ,3,1,0.,4.8,2.,4.8,1.,4.8,0.,4.8
1979-07-02 21:15:27.160 ,3,1,0.,4.8,2.,4.8,0.,4.8,3.,4.8
1979-07-02 21:15:31.960 ,3,1,0.,4.8,4.,4.8,4.,4.8,1.,4.8
1979-07-02 21:15:36.760 ,0,1,0.,4.8,3.,4.8,1.,4.8,1.,4.8
1979-07-02 21:15:41.560 ,0,1,0.,4.8,6.,4.8,1.,4.8,0.,4.8
1979-07-02 21:15:46.360 ,0,1,0.,4.8,5.,4.8,1.,4.8,1.,4.8
1979-07-02 21:15:51.160 ,0,1,0.,4.8,1.,4.8,0.,4.8,0.,4.8
1979-07-02 21:15:55.960 ,0,1,0.,4.8,3.,4.8,1.,4.8,0.,4.8
1979-07-02 21:16:00.760 ,4,1,0.,4.8,3.,4.8,0.,4.8,0.,4.8
1979-07-02 21:16:05.560 ,4,1,0.,4.8,3.,4.8,2.,4.8,0.,4.8
1979-07-02 21:16:10.360 ,4,1,0.,4.8,7.,4.8,1.,4.8,0.,4.8
1979-07-02 21:16:15.160 ,4,1,0.,4.8,3.,4.8,1.,4.8,0.,4.8
1979-07-02 21:16:19.960 ,4,1,0.,4.8,2.,4.8,0.,4.8,2.,4.8
1979-07-02 21:16:24.760 ,7,1,0.,4.8,2.,4.8,1.,4.8,0.,4.8
1979-07-02 21:16:29.560 ,7,1,0.,4.8,1.,4.8,0.,4.8,1.,4.8
1979-07-02 21:16:34.360 ,7,1,0.,4.8,3.,4.8,0.,4.8,0.,4.8
1979-07-02 21:16:39.160 ,7,1,0.,4.8,0.,4.8,0.,4.8,0.,4.8
1979-07-02 21:16:43.960 ,7,1,0.,4.8,2.,4.8,0.,4.8,0.,4.8
1979-07-02 21:16:48.760 ,3,1,0.,4.8,1.,4.8,0.,4.8,1.,4.8
1979-07-02 21:16:53.560 ,3,1,0.,4.8,0.,4.8,0.,4.8,1.,4.8
1979-07-02 21:16:58.360 ,3,1,0.,4.8,1.,4.8,1.,4.8,1.,4.8
1979-07-02 21:17:03.160 ,3,1,0.,4.8,2.,4.8,1.,4.8,0.,4.8
1979-07-02 21:17:07.960 ,3,1,0.,4.8,3.,4.8,2.,4.8,1.,4.8
1979-07-02 21:17:12.760 ,0,1,0.,4.8,1.,4.8,3.,4.8,0.,4.8
1979-07-02 21:17:17.560 ,0,1,0.,4.8,4.,4.8,0.,4.8,0.,4.8
1979-07-02 21:17:22.360 ,0,1,0.,4.8,2.,4.8,2.,4.8,1.,4.8
1979-07-02 21:17:27.160 ,0,1,0.,4.8,3.,4.8,1.,4.8,1.,4.8
1979-07-02 21:17:31.960 ,0,1,0.,4.8,2.,4.8,0.,4.8,0.,4.8
1979-07-02 21:17:36.760 ,0,0,0.,4.8,3.,4.8,1.,4.8,0.,4.8
1979-07-02 21:17:41.560 ,0,0,0.,4.8,7.,4.8,1.,4.8,1.,4.8
1979-07-02 21:17:46.360 ,0,0,0.,4.8,4.,4.8,1.,4.8,2.,4.8
1979-07-02 21:17:51.160 ,0,0,0.,4.8,4.,4.8,1.,4.8,0.,4.8
1979-07-02 21:17:55.960 ,0,0,0.,4.8,6.,4.8,0.,4.8,0.,4.8
1979-07-02 21:18:00.760 ,0,0,0.,4.8,2.,4.8,2.,4.8,0.,4.8
1979-07-02 21:18:05.560 ,0,0,0.,4.8,2.,4.8,0.,4.8,0.,4.8
1979-07-02 21:18:10.360 ,0,0,0.,4.8,1.,4.8,0.,4.8,0.,4.8
1979-07-02 21:18:15.160 ,0,0,0.,4.8,0.,4.8,0.,4.8,0.,4.8
1979-07-02 21:18:19.960 ,0,0,0.,4.8,0.,4.8,0.,4.8,0.,4.8
1979-07-02 21:18:24.760 ,5,0,0.,4.8,1.,4.8,0.,4.8,0.,4.8
1979-07-02 21:18:29.560 ,5,0,0.,4.8,2.,4.8,0.,4.8,1.,4.8
1979-07-02 21:18:34.360 ,5,0,0.,4.8,2.,4.8,0.,4.8,0.,4.8
1979-07-02 21:18:39.160 ,5,0,0.,4.8,1.,4.8,0.,4.8,0.,4.8
1979-07-02 21:18:43.960 ,5,0,0.,4.8,0.,4.8,0.,4.8,1.,4.8
1979-07-02 21:18:48.760 ,5,0,0.,4.8,0.,4.8,1.,4.8,0.,4.8
1979-07-02 21:18:53.560 ,5,0,0.,4.8,2.,4.8,6.,4.8,1.,4.8
1979-07-02 21:18:58.360 ,5,0,0.,4.8,2.,4.8,1.,4.8,3.,4.8
1979-07-02 21:19:03.160 ,5,0,0.,4.8,4.,4.8,0.,4.8,0.,4.8
1979-07-02 21:19:07.960 ,5,0,0.,4.8,2.,4.8,0.,4.8,0.,4.8
1979-07-02 21:19:12.760 ,4,0,0.,4.8,2.,4.8,2.,4.8,0.,4.8
1979-07-02 21:19:17.560 ,4,0,0.,4.8,0.,4.8,1.,4.8,1.,4.8
1979-07-02 21:19:22.360 ,4,0,0.,4.8,2.,4.8,0.,4.8,0.,4.8
1979-07-02 21:19:27.160 ,4,0,0.,4.8,1.,4.8,0.,4.8,0.,4.8
1979-07-02 21:19:31.960 ,4,0,0.,4.8,2.,4.8,0.,4.8,0.,4.8
1979-07-02 21:19:36.760 ,4,0,0.,4.8,1.,4.8,0.,4.8,0.,4.8
1979-07-02 21:19:41.560 ,4,0,0.,4.8,2.,4.8,0.,4.8,2.,4.8
1979-07-02 21:19:46.360 ,4,0,0.,4.8,2.,4.8,0.,4.8,2.,4.8
1979-07-02 21:19:51.160 ,4,0,0.,4.8,3.,4.8,2.,4.8,0.,4.8
1979-07-02 21:19:55.960 ,4,0,0.,4.8,2.,4.8,1.,4.8,0.,4.8
1979-07-02 21:20:00.760 ,3,0,0.,4.8,1.,4.8,0.,4.8,1.,4.8
1979-07-02 21:20:05.560 ,3,0,0.,4.8,1.,4.8,2.,4.8,1.,4.8
1979-07-02 21:20:10.360 ,3,0,0.,4.8,1.,4.8,1.,4.8,0.,4.8
1979-07-02 21:20:15.160 ,3,0,0.,4.8,1.,4.8,0.,4.8,1.,4.8
1979-07-02 21:20:19.960 ,3,0,0.,4.8,2.,4.8,0.,4.8,1.,4.8
1979-07-02 21:20:24.760 ,3,0,0.,4.8,5.,4.8,0.,4.8,4.,4.8
1979-07-02 21:20:29.560 ,3,0,0.,4.8,1.,4.8,0.,4.8,0.,4.8
1979-07-02 21:20:34.360 ,3,0,0.,4.8,5.,4.8,0.,4.8,0.,4.8
1979-07-02 21:20:39.160 ,3,0,0.,4.8,3.,4.8,4.,4.8,0.,4.8
1979-07-02 21:20:43.960 ,3,0,0.,4.8,1.,4.8,1.,4.8,0.,4.8
1979-07-02 21:20:48.760 ,2,0,0.,4.8,5.,4.8,1.,4.8,0.,4.8
1979-07-02 21:20:53.560 ,2,0,0.,4.8,2.,4.8,0.,4.8,1.,4.8
1979-07-02 21:20:58.360 ,2,0,0.,4.8,2.,4.8,0.,4.8,1.,4.8
1979-07-02 21:21:03.160 ,2,0,0.,4.8,5.,4.8,0.,4.8,0.,4.8
1979-07-02 21:21:07.960 ,2,0,0.,4.8,2.,4.8,0.,4.8,0.,4.8
1979-07-02 21:21:12.760 ,2,0,0.,4.8,4.,4.8,5.,4.8,2.,4.8
1979-07-02 21:21:17.560 ,2,0,0.,4.8,4.,4.8,2.,4.8,1.,4.8
1979-07-02 21:21:22.360 ,2,0,0.,4.8,5.,4.8,0.,4.8,0.,4.8
1979-07-02 21:21:27.160 ,2,0,0.,4.8,2.,4.8,1.,4.8,0.,4.8
1979-07-02 21:21:31.960 ,2,0,0.,4.8,0.,4.8,1.,4.8,0.,4.8
1979-07-02 21:21:36.760 ,1,0,0.,4.8,6.,4.8,2.,4.8,1.,4.8
1979-07-02 21:21:41.560 ,1,0,0.,4.8,7.,4.8,1.,4.8,0.,4.8
1979-07-02 21:21:46.360 ,1,0,0.,4.8,1.,4.8,1.,4.8,0.,4.8
1979-07-02 21:21:51.160 ,1,0,0.,4.8,5.,4.8,0.,4.8,0.,4.8
1979-07-02 21:21:55.960 ,1,0,0.,4.8,4.,4.8,1.,4.8,0.,4.8
1979-07-02 21:22:00.760 ,1,0,0.,4.8,3.,4.8,1.,4.8,0.,4.8
1979-07-02 21:22:05.560 ,1,0,0.,4.8,1.,4.8,2.,4.8,1.,4.8
1979-07-02 21:22:10.360 ,1,0,0.,4.8,4.,4.8,3.,4.8,1.,4.8
1979-07-02 21:22:15.160 ,1,0,0.,4.8,2.,4.8,1.,4.8,3.,4.8
1979-07-02 21:22:19.960 ,1,0,0.,4.8,3.,4.8,1.,4.8,2.,4.8
1979-07-02 21:22:24.760 ,0,0,0.,4.8,6.,4.8,1.,4.8,0.,4.8
1979-07-02 21:22:29.560 ,0,0,0.,4.8,0.,4.8,0.,4.8,0.,4.8
1979-07-02 21:22:34.360 ,0,0,0.,4.8,2.,4.8,1.,4.8,0.,4.8
1979-07-02 21:22:39.160 ,0,0,0.,4.8,3.,4.8,1.,4.8,2.,4.8
1979-07-02 21:22:43.960 ,0,0,0.,4.8,4.,4.8,2.,4.8,1.,4.8
1979-07-02 21:22:48.760 ,0,0,0.,4.8,2.,4.8,1.,4.8,0.,4.8
1979-07-02 21:22:53.560 ,0,0,0.,4.8,5.,4.8,1.,4.8,0.,4.8
1979-07-02 21:22:58.360 ,0,0,0.,4.8,2.,4.8,2.,4.8,0.,4.8
1979-07-02 21:23:03.160 ,0,0,0.,4.8,1.,4.8,2.,4.8,1.,4.8
1979-07-02 21:23:07.960 ,0,0,0.,4.8,4.,4.8,2.,4.8,0.,4.8
1979-07-02 21:23:12.760 ,0,0,0.,4.8,3.,4.8,1.,4.8,2.,4.8
1979-07-02 21:23:17.560 ,0,0,0.,4.8,4.,4.8,1.,4.8,0.,4.8
1979-07-02 21:23:22.360 ,0,0,0.,4.8,5.,4.8,1.,4.8,0.,4.8
1979-07-02 21:23:27.160 ,0,0,0.,4.8,2.,4.8,0.,4.8,0.,4.8
1979-07-02 21:23:31.960 ,0,0,0.,4.8,0.,4.8,1.,4.8,1.,4.8
1979-07-02 21:23:36.760 ,0,0,0.,4.8,5.,4.8,2.,4.8,1.,4.8
1979-07-02 21:23:41.560 ,0,0,0.,4.8,0.,4.8,0.,4.8,0.,4.8
1979-07-02 21:23:46.360 ,0,0,0.,4.8,5.,4.8,0.,4.8,0.,4.8
1979-07-02 21:23:51.160 ,0,0,0.,4.8,1.,4.8,1.,4.8,1.,4.8
1979-07-02 21:23:55.960 ,0,0,0.,4.8,2.,4.8,1.,4.8,1.,4.8
1979-07-02 21:24:00.760 ,1,0,0.,4.8,2.,4.8,0.,4.8,1.,4.8
1979-07-02 21:24:05.560 ,1,0,0.,4.8,2.,4.8,0.,4.8,0.,4.8
1979-07-02 21:24:10.360 ,1,0,0.,4.8,6.,4.8,3.,4.8,1.,4.8
1979-07-02 21:24:15.160 ,1,0,0.,4.8,2.,4.8,1.,4.8,2.,4.8
1979-07-02 21:24:19.960 ,1,0,0.,4.8,6.,4.8,1.,4.8,1.,4.8
1979-07-02 21:24:24.760 ,1,0,0.,4.8,2.,4.8,3.,4.8,0.,4.8
1979-07-02 21:24:29.560 ,1,0,0.,4.8,2.,4.8,4.,4.8,0.,4.8
1979-07-02 21:24:34.360 ,1,0,0.,4.8,1.,4.8,0.,4.8,0.,4.8
1979-07-02 21:24:39.160 ,1,0,0.,4.8,1.,4.8,1.,4.8,1.,4.8
1979-07-02 21:24:43.960 ,1,0,0.,4.8,5.,4.8,4.,4.8,0.,4.8
1979-07-02 21:24:48.760 ,2,0,0.,4.8,3.,4.8,1.,4.8,2.,4.8
1979-07-02 21:24:53.560 ,2,0,0.,4.8,2.,4.8,1.,4.8,1.,4.8
1979-07-02 21:24:58.360 ,2,0,0.,4.8,5.,4.8,1.,4.8,0.,4.8
1979-07-02 21:25:03.160 ,2,0,0.,4.8,1.,4.8,1.,4.8,1.,4.8
1979-07-02 21:25:07.960 ,2,0,0.,4.8,6.,4.8,0.,4.8,0.,4.8
1979-07-02 21:25:12.760 ,2,0,0.,4.8,3.,4.8,0.,4.8,0.,4.8
1979-07-02 21:25:17.560 ,2,0,0.,4.8,9.,4.8,2.,4.8,2.,4.8
1979-07-02 21:25:22.360 ,2,0,0.,4.8,2.,4.8,0.,4.8,1.,4.8
1979-07-02 21:25:27.160 ,2,0,0.,4.8,4.,4.8,1.,4.8,1.,4.8
1979-07-02 21:25:31.960 ,2,0,0.,4.8,3.,4.8,3.,4.8,0.,4.8
1979-07-02 21:25:36.760 ,3,0,0.,4.8,4.,4.8,1.,4.8,1.,4.8
1979-07-02 21:25:41.560 ,3,0,0.,4.8,4.,4.8,2.,4.8,2.,4.8
1979-07-02 21:25:46.360 ,3,0,0.,4.8,6.,4.8,1.,4.8,1.,4.8
1979-07-02 21:25:51.160 ,3,0,0.,4.8,0.,4.8,2.,4.8,0.,4.8
1979-07-02 21:25:55.960 ,3,0,0.,4.8,4.,4.8,1.,4.8,0.,4.8
1979-07-02 21:26:00.760 ,3,0,0.,4.8,1.,4.8,5.,4.8,0.,4.8
1979-07-02 21:26:05.560 ,3,0,0.,4.8,2.,4.8,1.,4.8,3.,4.8
1979-07-02 21:26:10.360 ,3,0,0.,4.8,4.,4.8,2.,4.8,1.,4.8
1979-07-02 21:26:15.160 ,3,0,0.,4.8,1.,4.8,2.,4.8,0.,4.8
1979-07-02 21:26:19.960 ,3,0,0.,4.8,2.,4.8,1.,4.8,1.,4.8
1979-07-02 21:26:24.760 ,4,0,0.,4.8,4.,4.8,0.,4.8,0.,4.8
1979-07-02 21:26:29.560 ,4,0,0.,4.8,5.,4.8,0.,4.8,1.,4.8
1979-07-02 21:26:34.360 ,4,0,0.,4.8,2.,4.8,1.,4.8,0.,4.8
1979-07-02 21:26:39.160 ,4,0,0.,4.8,3.,4.8,0.,4.8,0.,4.8
1979-07-02 21:26:43.960 ,4,0,0.,4.8,1.,4.8,0.,4.8,1.,4.8
1979-07-02 21:26:48.760 ,4,0,0.,4.8,2.,4.8,0.,4.8,0.,4.8
1979-07-02 21:26:53.560 ,4,0,0.,4.8,2.,4.8,1.,4.8,0.,4.8
1979-07-02 21:26:58.360 ,4,0,0.,4.8,4.,4.8,2.,4.8,0.,4.8
1979-07-02 21:27:03.160 ,4,0,0.,4.8,3.,4.8,2.,4.8,2.,4.8
1979-07-02 21:27:07.960 ,4,0,0.,4.8,1.,4.8,4.,4.8,1.,4.8
1979-07-02 21:27:12.760 ,5,0,0.,4.8,5.,4.8,1.,4.8,0.,4.8
1979-07-02 21:27:17.560 ,5,0,0.,4.8,4.,4.8,0.,4.8,0.,4.8
1979-07-02 21:27:22.360 ,5,0,0.,4.8,1.,4.8,0.,4.8,1.,4.8
1979-07-02 21:27:27.160 ,5,0,0.,4.8,4.,4.8,0.,4.8,0.,4.8
1979-07-02 21:27:31.960 ,5,0,0.,4.8,4.,4.8,0.,4.8,0.,4.8
1979-07-02 21:27:36.760 ,5,0,0.,4.8,3.,4.8,0.,4.8,0.,4.8
1979-07-02 21:27:41.560 ,5,0,0.,4.8,2.,4.8,3.,4.8,0.,4.8
1979-07-02 21:27:46.360 ,5,0,0.,4.8,2.,4.8,2.,4.8,0.,4.8
1979-07-02 21:27:51.160 ,5,0,0.,4.8,2.,4.8,1.,4.8,2.,4.8
1979-07-02 21:27:55.960 ,5,0,0.,4.8,3.,4.8,1.,4.8,1.,4.8
1979-07-02 21:28:00.760 ,6,0,0.,4.8,2.,4.8,1.,4.8,1.,4.8
1979-07-02 21:28:05.560 ,6,0,0.,4.8,1.,4.8,0.,4.8,0.,4.8
1979-07-02 21:28:10.360 ,6,0,0.,4.8,2.,4.8,0.,4.8,0.,4.8
1979-07-02 21:28:15.160 ,6,0,0.,4.8,4.,4.8,2.,4.8,0.,4.8
1979-07-02 21:28:19.960 ,6,0,0.,4.8,2.,4.8,1.,4.8,0.,4.8
1979-07-02 21:28:24.760 ,6,0,0.,4.8,1.,4.8,1.,4.8,2.,4.8
1979-07-02 21:28:29.560 ,6,0,0.,4.8,0.,4.8,0.,4.8,2.,4.8
1979-07-02 21:28:34.360 ,6,0,0.,4.8,3.,4.8,2.,4.8,0.,4.8
1979-07-02 21:28:39.160 ,6,0,0.,4.8,2.,4.8,3.,4.8,0.,4.8
1979-07-02 21:28:43.960 ,6,0,0.,4.8,1.,4.8,2.,4.8,0.,4.8
1979-07-02 21:28:48.760 ,7,0,0.,4.8,5.,4.8,0.,4.8,1.,4.8
1979-07-02 21:28:53.560 ,7,0,0.,4.8,1.,4.8,2.,4.8,0.,4.8
1979-07-02 21:28:58.360 ,7,0,0.,4.8,0.,4.8,0.,4.8,0.,4.8
1979-07-02 21:29:03.160 ,7,0,0.,4.8,0.,4.8,0.,4.8,0.,4.8
1979-07-02 21:29:07.960 ,7,0,0.,4.8,1.,4.8,0.,4.8,0.,4.8
1979-07-02 21:29:12.760 ,7,0,0.,4.8,1.,4.8,0.,4.8,0.,4.8
1979-07-02 21:29:17.560 ,7,0,0.,4.8,0.,4.8,0.,4.8,0.,4.8
1979-07-02 21:29:22.360 ,7,0,0.,4.8,1.,4.8,0.,4.8,1.,4.8
1979-07-02 21:29:27.160 ,7,0,0.,4.8,1.,4.8,0.,4.8,0.,4.8
1979-07-02 21:29:31.960 ,7,0,0.,4.8,3.,4.8,0.,4.8,0.,4.8
1979-07-02 21:29:36.760 ,7,0,0.,4.8,1.,4.8,0.,4.8,0.,4.8
1979-07-02 21:29:41.560 ,7,0,0.,4.8,0.,4.8,0.,4.8,0.,4.8
1979-07-02 21:29:46.360 ,7,0,0.,4.8,0.,4.8,0.,4.8,0.,4.8
1979-07-02 21:29:51.160 ,7,0,0.,4.8,0.,4.8,0.,4.8,0.,4.8
1979-07-02 21:29:55.960 ,7,0,0.,4.8,0.,4.8,0.,4.8,0.,4.8
1979-07-02 21:30:00.760 ,7,0,0.,4.8,0.,4.8,0.,4.8,0.,4.8
1979-07-02 21:30:05.560 ,7,0,0.,4.8,1.,4.8,0.,4.8,0.,4.8
1979-07-02 21:30:10.360 ,7,0,0.,4.8,0.,4.8,0.,4.8,0.,4.8
1979-07-02 21:30:15.160 ,7,0,0.,4.8,0.,4.8,0.,4.8,0.,4.8
1979-07-02 21:30:19.960 ,7,0,0.,4.8,1.,4.8,0.,4.8,0.,4.8
1979-07-02 21:30:24.760 ,6,0,0.,4.8,0.,4.8,0.,4.8,0.,4.8
1979-07-02 21:30:29.560 ,6,0,0.,4.8,1.,4.8,0.,4.8,1.,4.8
1979-07-02 21:30:34.360 ,6,0,0.,4.8,1.,4.8,0.,4.8,1.,4.8
1979-07-02 21:30:39.160 ,6,0,0.,4.8,0.,4.8,0.,4.8,1.,4.8
1979-07-02 21:30:43.960 ,6,0,0.,4.8,0.,4.8,0.,4.8,0.,4.8
1979-07-02 21:30:48.760 ,6,0,0.,4.8,3.,4.8,2.,4.8,0.,4.8
1979-07-02 21:30:53.560 ,6,0,0.,4.8,2.,4.8,0.,4.8,0.,4.8
1979-07-02 21:30:58.360 ,6,0,0.,4.8,2.,4.8,1.,4.8,1.,4.8
1979-07-02 21:31:03.160 ,6,0,0.,4.8,4.,4.8,3.,4.8,1.,4.8
1979-07-02 21:31:07.960 ,6,0,0.,4.8,3.,4.8,0.,4.8,1.,4.8
1979-07-02 21:31:12.760 ,5,0,1.,4.8,3.,4.8,1.,4.8,0.,4.8
1979-07-02 21:31:17.560 ,5,0,0.,4.8,2.,4.8,0.,4.8,0.,4.8
1979-07-02 21:31:22.360 ,5,0,0.,4.8,1.,4.8,1.,4.8,1.,4.8
1979-07-02 21:31:27.160 ,5,0,0.,4.8,1.,4.8,3.,4.8,1.,4.8
1979-07-02 21:31:31.960 ,5,0,0.,4.8,1.,4.8,1.,4.8,0.,4.8
1979-07-02 21:31:36.760 ,5,0,0.,4.8,0.,4.8,1.,4.8,1.,4.8
1979-07-02 21:31:41.560 ,5,0,0.,4.8,5.,4.8,1.,4.8,0.,4.8
1979-07-02 21:31:46.360 ,5,0,0.,4.8,0.,4.8,2.,4.8,0.,4.8
1979-07-02 21:31:51.160 ,5,0,0.,4.8,1.,4.8,2.,4.8,0.,4.8
1979-07-02 21:31:55.960 ,5,0,0.,4.8,1.,4.8,0.,4.8,0.,4.8
1979-07-02 21:32:00.760 ,4,0,0.,4.8,3.,4.8,1.,4.8,0.,4.8
1979-07-02 21:32:05.560 ,4,0,0.,4.8,1.,4.8,1.,4.8,0.,4.8
1979-07-02 21:32:10.360 ,4,0,0.,4.8,2.,4.8,2.,4.8,0.,4.8
1979-07-02 21:32:15.160 ,4,0,0.,4.8,1.,4.8,0.,4.8,0.,4.8
1979-07-02 21:32:19.960 ,4,0,0.,4.8,1.,4.8,0.,4.8,1.,4.8
1979-07-02 21:32:24.760 ,4,0,0.,4.8,3.,4.8,2.,4.8,0.,4.8
1979-07-02 21:32:29.560 ,4,0,0.,4.8,2.,4.8,0.,4.8,1.,4.8
1979-07-02 21:32:34.360 ,4,0,0.,4.8,2.,4.8,2.,4.8,0.,4.8
1979-07-02 21:32:39.160 ,4,0,0.,4.8,1.,4.8,0.,4.8,0.,4.8
1979-07-02 21:32:43.960 ,4,0,0.,4.8,3.,4.8,0.,4.8,1.,4.8
1979-07-02 21:32:48.760 ,3,0,0.,4.8,0.,4.8,2.,4.8,0.,4.8
1979-07-02 21:32:53.560 ,3,0,0.,4.8,3.,4.8,2.,4.8,0.,4.8
1979-07-02 21:32:58.360 ,3,0,0.,4.8,1.,4.8,2.,4.8,1.,4.8
1979-07-02 21:33:03.160 ,3,0,0.,4.8,3.,4.8,1.,4.8,3.,4.8
1979-07-02 21:33:07.960 ,3,0,0.,4.8,7.,4.8,2.,4.8,0.,4.8
1979-07-02 21:33:12.760 ,3,0,0.,4.8,1.,4.8,3.,4.8,2.,4.8
1979-07-02 21:33:17.560 ,3,0,0.,4.8,1.,4.8,1.,4.8,0.,4.8